{"data":{"norad_id":68472,"epoch":"2026-05-24T19:21:19.238688Z","epoch_age_seconds":85537,"freshness":"FRESH","line1":"1 68472U 26067BJ  26144.80647267  .00001547  00000+0  16289-3 0  9990","line2":"2 68472  97.7620 103.3663 0005701 107.7102 252.4739 14.90781040  8243","mean_motion":14.9078104,"eccentricity":0.0005701,"inclination_deg":97.762,"raan_deg":103.3663,"arg_perigee_deg":107.7102,"mean_anomaly_deg":252.4739,"bstar":0.00016289,"rev_number":824,"period_min":96.593662071259,"perigee_km":591.52321118796,"apogee_km":599.47455081948,"semimajor_km":6973.6358810037,"source":"CELESTRAK","updated_at":"2026-05-25T13:38:07.849062Z"}}